Code,Year,DOY,HHMM,TIMESTAMP,wd,ws_min,ws,ws_max,Ta,RH,P,Rain,Hail
63619,2022,182,0000,2022-07-01 00:00:00,62.4,6.433,6.585,6.773,21.21,63.09,999,0,0
63620,2022,182,0010,2022-07-01 00:10:00,63.46,6.171,6.3,6.449,21.03,63.81,999,0,0
63621,2022,182,0020,2022-07-01 00:20:00,66.5,5.728,5.86,6.01,20.99,64.71,999,0,0
63622,2022,182,0030,2022-07-01 00:30:00,61.3,5.482,5.625,5.765,20.95,65.14,999,0,0
63623,2022,182,0040,2022-07-01 00:40:00,62.45,4.943,5.078,5.213,20.78,65.94,999,0,0
63624,2022,182,0050,2022-07-01 00:50:00,62.38,4.533,4.672,4.812,20.73,66.57,999,0,0
63625,2022,182,0100,2022-07-01 01:00:00,62.73,4.535,4.678,4.818,20.72,67.1,999,0,0
63626,2022,182,0110,2022-07-01 01:10:00,59.48,4.555,4.648,4.75,20.7,67.57,999,0,0
63627,2022,182,0120,2022-07-01 01:20:00,63.08,4.955,5.075,5.203,20.7,67.96,999,0,0
63628,2022,182,0130,2022-07-01 01:30:00,61.05,5.238,5.353,5.475,20.72,68.2,999,0,0
63629,2022,182,0140,2022-07-01 01:40:00,56.73,4.828,4.963,5.092,20.52,68.84,999,0,0
63630,2022,182,0150,2022-07-01 01:50:00,61.15,4.863,4.957,5.078,20.38,69.31,999,0,0
63631,2022,182,0200,2022-07-01 02:00:00,72.78,4.207,4.297,4.39,20.18,70.09,999,0,0
63632,2022,182,0210,2022-07-01 02:10:00,72.38,3.852,3.95,4.047,20.2,70.49,999,0,0
63633,2022,182,0220,2022-07-01 02:20:00,72.15,4.175,4.27,4.362,20.24,70.84,999,0,0
63634,2022,182,0230,2022-07-01 02:30:00,72.93,3.815,3.895,3.975,20.22,71.13,999,0,0
63635,2022,182,0240,2022-07-01 02:40:00,82.5,3.567,3.665,3.763,20.17,71.6,999,0,0
63636,2022,182,0250,2022-07-01 02:50:00,85.1,3.805,3.923,4.03,20.13,72.18,999,0,0
63637,2022,182,0300,2022-07-01 03:00:00,92.3,4.24,4.345,4.453,20.24,72.68,999,0,0
63638,2022,182,0310,2022-07-01 03:10:00,95.9,4.283,4.415,4.547,20.3,72.82,999,0,0
63639,2022,182,0320,2022-07-01 03:20:00,107.2,3.505,3.625,3.752,20.17,73.34,999,0,0
63640,2022,182,0330,2022-07-01 03:30:00,113.4,2.748,2.88,3.003,19.98,74.53,999,0,0
63641,2022,182,0340,2022-07-01 03:40:00,123.4,3.61,3.755,3.915,19.83,75.62,999,0,0
63642,2022,182,0350,2022-07-01 03:50:00,120.8,4.245,4.412,4.588,19.79,76.03,999,0,0
63643,2022,182,0400,2022-07-01 04:00:00,122.8,4.37,4.555,4.765,19.61,76.4,999,0,0
63644,2022,182,0410,2022-07-01 04:10:00,128.2,3.865,4.058,4.238,19.38,76.94,999,0,0
63645,2022,182,0420,2022-07-01 04:20:00,138,3.482,3.7,3.915,19.23,77.46,999,0,0
63646,2022,182,0430,2022-07-01 04:30:00,138.4,4.15,4.375,4.585,19.11,77.82,999,0,0
63647,2022,182,0440,2022-07-01 04:40:00,145.5,3.89,4.158,4.413,19.03,78.31,999,0,0
63648,2022,182,0450,2022-07-01 04:50:00,157.5,3.882,4.287,4.715,19,78.34,999,0,0
63649,2022,182,0500,2022-07-01 05:00:00,164,3.957,4.32,4.697,19,78.94,999,0,0
63650,2022,182,0510,2022-07-01 05:10:00,158.6,3.413,3.782,4.125,18.99,80.3,999,0,0
63651,2022,182,0520,2022-07-01 05:20:00,151.4,3.072,3.442,3.782,18.97,81.1,999,0,0
63652,2022,182,0530,2022-07-01 05:30:00,159.2,2.897,3.163,3.405,19.02,81.7,999,0,0
63653,2022,182,0540,2022-07-01 05:40:00,155.7,2.82,3.115,3.41,19.15,81.9,999,0,0
63654,2022,182,0550,2022-07-01 05:50:00,167,3.345,3.66,3.977,19.25,81.9,999,0,0
63655,2022,182,0600,2022-07-01 06:00:00,173.7,4.335,4.675,5.01,19.39,81.3,999,0,0
63656,2022,182,0610,2022-07-01 06:10:00,185.7,3.89,4.197,4.498,19.49,80.7,999,0,0
63657,2022,182,0620,2022-07-01 06:20:00,188.3,5.098,5.353,5.595,19.6,81.5,999,0,0
63658,2022,182,0630,2022-07-01 06:30:00,185.5,5.22,5.42,5.632,19.58,82.4,999,0,0
63659,2022,182,0640,2022-07-01 06:40:00,178.5,4.405,4.66,4.91,19.62,82.4,999,0,0
63660,2022,182,0650,2022-07-01 06:50:00,184.8,3.857,4.143,4.42,19.76,80.8,999,0,0
63661,2022,182,0700,2022-07-01 07:00:00,184.6,7.185,7.395,7.615,19.67,78.11,999,0,0
63662,2022,182,0710,2022-07-01 07:10:00,182.8,6.638,6.848,7.065,19.66,75.38,999,0,0
63663,2022,182,0720,2022-07-01 07:20:00,193.4,5.755,5.955,6.168,19.82,73.17,999,0,0
63664,2022,182,0730,2022-07-01 07:30:00,193.9,5.838,6.053,6.263,19.87,70.64,999,0,0
63665,2022,182,0740,2022-07-01 07:40:00,199.2,6.2,6.393,6.595,19.98,69.24,999,0,0
63666,2022,182,0750,2022-07-01 07:50:00,196,4.575,4.882,5.17,20.05,70.41,999,0,0
63667,2022,182,0800,2022-07-01 08:00:00,195.9,4.763,5.013,5.255,20.04,70.2,999,0,0
63668,2022,182,0810,2022-07-01 08:10:00,194.2,5.197,5.385,5.572,20.19,67.66,999,0,0
63669,2022,182,0820,2022-07-01 08:20:00,194.6,5.482,5.643,5.815,20.26,66.68,999,0,0
63670,2022,182,0830,2022-07-01 08:30:00,198.7,4.507,4.73,4.965,20.41,67.13,999,0,0
63671,2022,182,0840,2022-07-01 08:40:00,199.7,4.478,4.658,4.842,20.45,66.52,999,0,0
63672,2022,182,0850,2022-07-01 08:50:00,191.3,4.627,4.91,5.172,20.47,67.97,999,0,0
63673,2022,182,0900,2022-07-01 09:00:00,204.4,5.098,5.325,5.565,20.41,68.04,999,0,0
63674,2022,182,0910,2022-07-01 09:10:00,204.6,4.69,4.898,5.12,20.41,66.64,999,0,0
63675,2022,182,0920,2022-07-01 09:20:00,206.6,4.523,4.695,4.89,20.63,66.22,999,0,0
63676,2022,182,0930,2022-07-01 09:30:00,204.4,4.33,4.513,4.685,20.79,68.37,999,0,0
63677,2022,182,0940,2022-07-01 09:40:00,210.4,4.885,5.065,5.245,20.79,68.38,999,0,0
63678,2022,182,0950,2022-07-01 09:50:00,207.6,5.777,5.978,6.155,20.85,62.88,999,0,0
63679,2022,182,1000,2022-07-01 10:00:00,203.5,5.185,5.428,5.655,20.77,64.4,999,0,0
63680,2022,182,1010,2022-07-01 10:10:00,215.2,4.908,5.09,5.268,20.67,66.55,999,0,0
63681,2022,182,1020,2022-07-01 10:20:00,218.9,5.36,5.535,5.693,20.64,65.68,1000,0,0
63682,2022,182,1030,2022-07-01 10:30:00,223,4.69,4.912,5.132,20.69,68.11,1000,0,0
63683,2022,182,1040,2022-07-01 10:40:00,225.5,6.197,6.438,6.697,20.33,70.12,1000,0,0
63684,2022,182,1050,2022-07-01 10:50:00,221.1,5.738,6.06,6.4,20.18,73.72,1000,0,0
63685,2022,182,1100,2022-07-01 11:00:00,222.8,5.47,5.715,5.922,19.97,73.56,1000,0,0
63686,2022,182,1110,2022-07-01 11:10:00,224.4,5.52,5.78,6.002,20.11,71.84,1000,0,0
63687,2022,182,1120,2022-07-01 11:20:00,223.9,5.103,5.355,5.595,20.21,71.16,1000,0,0
63688,2022,182,1130,2022-07-01 11:30:00,217.7,4.665,4.885,5.103,20.48,68.62,1000,0,0
63689,2022,182,1140,2022-07-01 11:40:00,216.3,4.75,4.993,5.24,20.77,67.01,1000,0,0
63690,2022,182,1150,2022-07-01 11:50:00,206.6,4.825,5.06,5.345,20.87,65.42,1000,0,0
63691,2022,182,1200,2022-07-01 12:00:00,208,4.268,4.533,4.79,21,66.06,1000,0,0
63692,2022,182,1210,2022-07-01 12:10:00,203.3,4.627,4.868,5.115,21.08,65.71,999,0,0
63693,2022,182,1220,2022-07-01 12:20:00,207.1,4.975,5.18,5.377,21.25,64.91,999,0,0
63694,2022,182,1230,2022-07-01 12:30:00,208.2,5.51,5.678,5.863,21.45,64.27,999,0,0
63695,2022,182,1240,2022-07-01 12:40:00,207.5,5.717,5.973,6.217,21.6,64.02,999,0,0
63696,2022,182,1250,2022-07-01 12:50:00,207,7.288,7.475,7.69,21.11,62.89,999,0,0
63697,2022,182,1300,2022-07-01 13:00:00,205.7,6.905,7.067,7.25,21.1,62.56,999,0,0
63698,2022,182,1310,2022-07-01 13:10:00,211.5,7.027,7.2,7.408,21.04,63.34,999,0,0
63699,2022,182,1320,2022-07-01 13:20:00,209.3,7.442,7.67,7.908,20.6,69.25,999,0,0
63700,2022,182,1330,2022-07-01 13:30:00,209.7,7.357,7.592,7.808,20.51,72.6,999,0,0
63701,2022,182,1340,2022-07-01 13:40:00,204.1,6.738,7.125,7.505,20.33,76.04,999,0,0
63702,2022,182,1350,2022-07-01 13:50:00,211.9,7.087,7.42,7.783,20.19,79.07,999,0,0
63703,2022,182,1400,2022-07-01 14:00:00,207.6,6.73,7.077,7.398,19.84,81.1,1000,0,0
63704,2022,182,1410,2022-07-01 14:10:00,200.6,7.007,7.21,7.4,19.83,80.2,1000,0,0
63705,2022,182,1420,2022-07-01 14:20:00,202.3,6.217,6.505,6.795,19.75,81.7,1000,0,0
63706,2022,182,1430,2022-07-01 14:30:00,203.8,4.482,4.828,5.172,19.67,81.4,1000,0,0
63707,2022,182,1440,2022-07-01 14:40:00,199.8,4.938,5.143,5.368,19.86,79.17,999,0,0
63708,2022,182,1450,2022-07-01 14:50:00,206.9,5.98,6.183,6.388,19.84,78.22,999,0,0
63709,2022,182,1500,2022-07-01 15:00:00,211.3,5.518,5.755,5.982,19.87,79.03,999,0,0
63710,2022,182,1510,2022-07-01 15:10:00,207.6,6.43,6.632,6.84,19.8,79.91,999,0,0
63711,2022,182,1520,2022-07-01 15:20:00,212.4,5.553,5.728,5.888,19.84,80.3,999,0,0
63712,2022,182,1530,2022-07-01 15:30:00,205.1,4.732,4.978,5.215,20.05,79.76,999,0,0
63713,2022,182,1540,2022-07-01 15:40:00,206.1,4.297,4.555,4.808,20.19,79.27,999,0,0
63714,2022,182,1550,2022-07-01 15:50:00,197.7,4.225,4.493,4.717,20.23,79.46,999,0,0
63715,2022,182,1600,2022-07-01 16:00:00,202.2,3.725,3.97,4.217,20.3,79.06,999,0,0
63716,2022,182,1610,2022-07-01 16:10:00,202.1,4.112,4.32,4.51,20.32,79.09,999,0,0
63717,2022,182,1620,2022-07-01 16:20:00,213.3,4.398,4.598,4.793,20.3,78.96,1000,0,0
63718,2022,182,1630,2022-07-01 16:30:00,218.4,4.635,4.822,5.005,20.3,79.07,1000,0,0
63719,2022,182,1640,2022-07-01 16:40:00,216.9,5.863,6.035,6.217,20.18,80.1,1000,0,0
63720,2022,182,1650,2022-07-01 16:50:00,217.4,6.283,6.45,6.663,19.88,81.8,1000,0,0
63721,2022,182,1700,2022-07-01 17:00:00,216,6.185,6.417,6.658,19.75,83.6,1000,0,0
63722,2022,182,1710,2022-07-01 17:10:00,210.7,6.607,6.837,7.088,19.59,85,1000,0,0
63723,2022,182,1720,2022-07-01 17:20:00,209.5,5.75,6.015,6.277,19.4,86.3,1000,0,0
63724,2022,182,1730,2022-07-01 17:30:00,204.8,6.52,6.692,6.857,19.4,86.9,1000,0,0
63725,2022,182,1740,2022-07-01 17:40:00,208.1,5.79,5.963,6.113,19.39,87.6,1000,0,0
63726,2022,182,1750,2022-07-01 17:50:00,210.6,5.33,5.533,5.73,19.33,87.6,1000,0,0
63727,2022,182,1800,2022-07-01 18:00:00,215.7,5.203,5.418,5.688,19.45,87.3,1000,0,0
63728,2022,182,1810,2022-07-01 18:10:00,220.4,6.393,6.582,6.77,19.53,86.4,1000,0,0
63729,2022,182,1820,2022-07-01 18:20:00,211,6.04,6.235,6.42,19.54,87.2,1000,0,0
63730,2022,182,1830,2022-07-01 18:30:00,212.1,5.785,6.005,6.203,19.5,87.8,1000,0,0
63731,2022,182,1840,2022-07-01 18:40:00,209.8,5.713,5.957,6.195,19.5,88.3,1000,0,0
63732,2022,182,1850,2022-07-01 18:50:00,214.9,6.193,6.39,6.59,19.49,88.6,1000,0,0
63733,2022,182,1900,2022-07-01 19:00:00,252.3,7.05,7.377,7.665,19.13,87.2,1000,0,0
63734,2022,182,1910,2022-07-01 19:10:00,291.7,8.54,8.89,9.26,18.01,85.7,1000,0,0
63735,2022,182,1920,2022-07-01 19:20:00,297.3,7.567,7.96,8.36,17.58,86.2,1000,0,0
63736,2022,182,1930,2022-07-01 19:30:00,290,7.702,8.11,8.5,17.45,85.4,1000,0,0
63737,2022,182,1940,2022-07-01 19:40:00,296.2,5.738,6.183,6.635,17.4,85,1000,0,0
63738,2022,182,1950,2022-07-01 19:50:00,287.8,5.94,6.293,6.655,17.47,84.1,1001,0,0
63739,2022,182,2000,2022-07-01 20:00:00,284.1,7.177,7.425,7.69,17.4,82.8,1001,0,0
63740,2022,182,2010,2022-07-01 20:10:00,286.4,5.73,6.178,6.56,17.41,82.1,1001,0,0
63741,2022,182,2020,2022-07-01 20:20:00,286.9,7.742,7.963,8.18,17.37,81.7,1001,0,0
63742,2022,182,2030,2022-07-01 20:30:00,287.5,9.51,9.8,10.11,17.18,81.3,1001,0,0
63743,2022,182,2040,2022-07-01 20:40:00,284,7.6,7.995,8.36,17.05,82.3,1001,0,0
63744,2022,182,2050,2022-07-01 20:50:00,291.2,7.752,8.2,8.62,16.83,83.7,1001,2.81,0
63745,2022,182,2100,2022-07-01 21:00:00,286.9,8.05,8.45,8.85,16.43,85.3,1001,3.777,0
63746,2022,182,2110,2022-07-01 21:10:00,285.8,7.882,8.18,8.5,16.12,86.9,1001,0.02,0
63747,2022,182,2120,2022-07-01 21:20:00,288.4,8.25,8.68,9.1,16.05,87.4,1001,0.105,0
63748,2022,182,2130,2022-07-01 21:30:00,292.5,7.598,7.99,8.39,16,87.8,1001,0.117,0
63749,2022,182,2140,2022-07-01 21:40:00,298.3,5.502,5.842,6.217,15.85,88.5,1001,0,0
63750,2022,182,2150,2022-07-01 21:50:00,284.2,5.79,6.053,6.332,15.78,88.5,1001,0,0
63751,2022,182,2200,2022-07-01 22:00:00,285.2,7.565,7.91,8.23,15.7,87.7,1001,0,0
63752,2022,182,2210,2022-07-01 22:10:00,284.4,7.783,8.08,8.37,15.71,87.1,1001,0,0
63753,2022,182,2220,2022-07-01 22:20:00,284.3,7.007,7.373,7.712,15.8,87,1001,0,0
63754,2022,182,2230,2022-07-01 22:30:00,280.2,7.027,7.363,7.762,15.86,87.4,1001,0,0
63755,2022,182,2240,2022-07-01 22:40:00,281.4,8.02,8.41,8.77,15.7,86.9,1001,0,0
63756,2022,182,2250,2022-07-01 22:50:00,284.4,8.39,8.78,9.18,15.45,84.6,1001,0,0
63757,2022,182,2300,2022-07-01 23:00:00,282.2,6.415,6.732,7.065,15.65,85.7,1002,0,0
63758,2022,182,2310,2022-07-01 23:10:00,270.6,7.888,8.41,8.9,15.56,86.1,1002,0,0
63759,2022,182,2320,2022-07-01 23:20:00,273.2,9.02,9.39,9.71,15.09,85.8,1002,0.653,0
63760,2022,182,2330,2022-07-01 23:30:00,277.7,8.32,8.73,9.12,14.94,85,1002,0.368,0
63761,2022,182,2340,2022-07-01 23:40:00,284.7,8.47,8.88,9.24,14.95,86.5,1002,0,0
63762,2022,182,2350,2022-07-01 23:50:00,290.1,8.15,8.66,9.16,14.51,87.3,1002,0.022,0
63763,2022,183,0000,2022-07-02 00:00:00,282.9,6.765,7.065,7.35,14.16,87.4,1002,0.218,0
63764,2022,183,0010,2022-07-02 00:10:00,282.5,6.16,6.463,6.731,14.3,87.4,1002,1.229,0
63765,2022,183,0020,2022-07-02 00:20:00,298.2,5.882,6.172,6.452,14.37,88.1,1002,5.375,0
63766,2022,183,0030,2022-07-02 00:30:00,311.3,6.947,7.285,7.605,14.53,88.8,1002,1.165,0
63767,2022,183,0040,2022-07-02 00:40:00,308.4,8.74,9.07,9.4,14.7,89.1,1002,0.432,0
63768,2022,183,0050,2022-07-02 00:50:00,288.3,4.832,4.99,5.17,14.7,89.6,1002,0.355,0
63769,2022,183,0100,2022-07-02 01:00:00,281.1,4.64,4.882,5.13,14.75,90.2,1002,0.45,0
63770,2022,183,0110,2022-07-02 01:10:00,270,3.955,4.245,4.507,14.87,90.6,1002,0.448,0
63771,2022,183,0120,2022-07-02 01:20:00,266.9,4.38,4.563,4.752,15.02,90.7,1002,1.4,0
63772,2022,183,0130,2022-07-02 01:30:00,269.1,6.61,7.067,7.445,15.17,90.5,1002,4.473,0
63773,2022,183,0140,2022-07-02 01:40:00,270.3,8.41,8.8,9.21,15.31,88.9,1001,0.602,0
63774,2022,183,0150,2022-07-02 01:50:00,267.8,10.69,10.93,11.18,15.4,85.1,1001,0.857,0
63775,2022,183,0200,2022-07-02 02:00:00,268.1,9.96,10.21,10.46,15.7,83,1001,0.2,0
63776,2022,183,0210,2022-07-02 02:10:00,267.9,9.18,9.63,10.02,15.88,82.8,1001,0.005,0
63777,2022,183,0220,2022-07-02 02:20:00,268.8,9.15,9.32,9.49,15.91,82.8,1002,0.435,0
63778,2022,183,0230,2022-07-02 02:30:00,268,8.35,8.75,9.11,15.92,84.1,1002,0.627,0
63779,2022,183,0240,2022-07-02 02:40:00,260.8,9.52,9.84,10.14,15.83,83.4,1001,0.355,0
63780,2022,183,0250,2022-07-02 02:50:00,266.1,9.66,9.91,10.16,15.83,83.4,1001,0.133,0
63781,2022,183,0300,2022-07-02 03:00:00,266.4,8.79,9.16,9.46,15.8,83.9,1001,0.03,0
63782,2022,183,0310,2022-07-02 03:10:00,268.9,8.81,9.11,9.4,15.77,82.7,1001,0.158,0
63783,2022,183,0320,2022-07-02 03:20:00,266.9,7.727,8.3,8.75,15.83,82.4,1001,0,0
63784,2022,183,0330,2022-07-02 03:30:00,266.5,8.39,8.69,9,15.91,80,1002,0,0
63785,2022,183,0340,2022-07-02 03:40:00,268.3,7.935,8.26,8.59,16.02,80.2,1001,0,0
63786,2022,183,0350,2022-07-02 03:50:00,267.5,7.66,8.01,8.34,15.97,77.68,1002,0.253,0
63787,2022,183,0400,2022-07-02 04:00:00,265.9,8.03,8.35,8.64,16,77.62,1002,0.028,0
63788,2022,183,0410,2022-07-02 04:10:00,267.3,7.98,8.36,8.69,16,78.07,1002,0,0
63789,2022,183,0420,2022-07-02 04:20:00,266.5,6.283,6.685,7.072,16,79.98,1002,0,0
63790,2022,183,0430,2022-07-02 04:30:00,263.4,6.925,7.29,7.627,16.01,79.37,1002,0,0
63791,2022,183,0440,2022-07-02 04:40:00,262.8,6.662,6.982,7.31,16.04,79.4,1002,0,0
63792,2022,183,0450,2022-07-02 04:50:00,257.1,8.83,9.12,9.4,16.08,79.29,1002,0,0
63793,2022,183,0500,2022-07-02 05:00:00,258.8,7.183,7.617,7.977,16.06,78.52,1002,0,0
63794,2022,183,0510,2022-07-02 05:10:00,259.4,7.54,7.825,8.1,16.05,78.84,1002,0,0
63795,2022,183,0520,2022-07-02 05:20:00,260.7,8.2,8.55,8.92,16.05,79.42,1002,0,0
63796,2022,183,0530,2022-07-02 05:30:00,255,10.57,10.75,10.93,15.99,79.02,1002,0,0
63797,2022,183,0540,2022-07-02 05:40:00,259,11.55,11.86,12.15,15.93,77.04,1002,0,0
63798,2022,183,0550,2022-07-02 05:50:00,261.6,8.95,9.49,10,16.04,75.41,1002,0,0
63799,2022,183,0600,2022-07-02 06:00:00,258.7,9.24,9.67,10.04,16.06,75.38,1003,0,0
63800,2022,183,0610,2022-07-02 06:10:00,255.9,9.18,9.49,9.79,16.05,77.3,1003,0,0
63801,2022,183,0620,2022-07-02 06:20:00,259.3,10.05,10.23,10.41,16.01,78.35,1003,0,0
63802,2022,183,0630,2022-07-02 06:30:00,255.2,10.18,10.51,10.84,15.94,78.62,1003,0,0
63803,2022,183,0640,2022-07-02 06:40:00,254.3,10.75,10.91,11.09,15.92,78.43,1003,0,0
63804,2022,183,0650,2022-07-02 06:50:00,259.1,9.4,9.75,10.06,15.83,78.1,1003,0,0
63805,2022,183,0700,2022-07-02 07:00:00,252.8,10.5,10.66,10.83,15.81,78.62,1003,0,0
63806,2022,183,0710,2022-07-02 07:10:00,254.6,9.45,9.66,9.87,15.78,78.88,1003,0,0
63807,2022,183,0720,2022-07-02 07:20:00,253.7,9.42,9.62,9.81,15.78,78.31,1003,0,0
63808,2022,183,0730,2022-07-02 07:30:00,252.6,9.75,9.96,10.15,15.79,79.13,1003,0,0
63809,2022,183,0740,2022-07-02 07:40:00,251.5,10.58,10.8,11.03,15.82,78.46,1003,0,0
63810,2022,183,0750,2022-07-02 07:50:00,249.8,10.9,11.11,11.3,15.81,77.85,1003,0,0
63811,2022,183,0800,2022-07-02 08:00:00,251.3,10.23,10.43,10.66,15.91,77.67,1003,0,0
63812,2022,183,0810,2022-07-02 08:10:00,248,10.62,10.81,11,15.9,77.53,1003,0,0
63813,2022,183,0820,2022-07-02 08:20:00,249.4,11,11.22,11.42,15.92,77.21,1003,0,0
63814,2022,183,0830,2022-07-02 08:30:00,250.1,10.63,10.86,11.09,15.9,77.49,1004,0,0
63815,2022,183,0840,2022-07-02 08:40:00,246.9,10.7,10.89,11.08,15.93,77.7,1004,0,0
63816,2022,183,0850,2022-07-02 08:50:00,248.8,11.4,11.58,11.75,15.95,77.92,1004,0,0
63817,2022,183,0900,2022-07-02 09:00:00,252.2,11.06,11.24,11.43,15.92,77.16,1004,0,0
63818,2022,183,0910,2022-07-02 09:10:00,251.1,10.5,10.64,10.77,15.97,78.03,1004,0,0
63819,2022,183,0920,2022-07-02 09:20:00,252,10.41,10.59,10.78,15.97,78.34,1004,0,0
63820,2022,183,0930,2022-07-02 09:30:00,251.6,10.11,10.28,10.47,16.01,78.57,1004,0,0
63821,2022,183,0940,2022-07-02 09:40:00,250.6,10.45,10.62,10.77,16.04,78.07,1004,0,0
63822,2022,183,0950,2022-07-02 09:50:00,249.4,10.82,11,11.19,16.09,77.52,1004,0,0
63823,2022,183,1000,2022-07-02 10:00:00,248.5,10.19,10.42,10.62,16.26,77.41,1004,0,0
63824,2022,183,1010,2022-07-02 10:10:00,254.8,10.37,10.54,10.71,16.2,76.12,1004,0,0
63825,2022,183,1020,2022-07-02 10:20:00,253.3,10.02,10.23,10.42,16.34,74.09,1004,0,0
63826,2022,183,1030,2022-07-02 10:30:00,247.7,10.34,10.49,10.66,16.37,72.24,1004,0,0
63827,2022,183,1040,2022-07-02 10:40:00,246.2,9.8,10,10.19,16.47,72.02,1005,0,0
63828,2022,183,1050,2022-07-02 10:50:00,246.5,9.59,9.84,10.09,16.6,72.41,1005,0,0
63829,2022,183,1100,2022-07-02 11:00:00,246.3,9.65,9.84,10.04,16.59,72.6,1005,0,0
63830,2022,183,1110,2022-07-02 11:10:00,239.2,9.2,9.49,9.8,16.72,73.75,1005,0,0
63831,2022,183,1120,2022-07-02 11:20:00,239.3,9.31,9.61,9.88,16.81,73.22,1005,0,0
63832,2022,183,1130,2022-07-02 11:30:00,228.4,8.09,8.47,8.89,17,73.21,1005,0,0
63833,2022,183,1140,2022-07-02 11:40:00,233.6,8.32,8.62,8.93,17.06,74.31,1005,0,0
63834,2022,183,1150,2022-07-02 11:50:00,240.9,9.4,9.68,10.03,17.01,73.19,1005,0,0
63835,2022,183,1200,2022-07-02 12:00:00,239.9,9.06,9.4,9.71,17.11,72.42,1005,0,0
63836,2022,183,1210,2022-07-02 12:10:00,237.3,8.95,9.27,9.62,17.23,70.41,1005,0,0
63837,2022,183,1220,2022-07-02 12:20:00,233.1,9.26,9.57,9.87,17.38,67.87,1005,0,0
63838,2022,183,1230,2022-07-02 12:30:00,228.3,7.74,7.98,8.23,17.6,65.88,1005,0,0
63839,2022,183,1240,2022-07-02 12:40:00,226.6,8.5,8.79,9.06,17.73,64.96,1005,0,0
63840,2022,183,1250,2022-07-02 12:50:00,226.6,8.85,9.16,9.47,17.77,63.34,1005,0,0
63841,2022,183,1300,2022-07-02 13:00:00,222.8,7.86,8.1,8.38,17.91,62.84,1005,0,0
63842,2022,183,1310,2022-07-02 13:10:00,225.1,7.492,7.81,8.13,18.02,62.71,1005,0,0
63843,2022,183,1320,2022-07-02 13:20:00,223.1,6.688,6.975,7.28,18.06,64.03,1005,0,0
63844,2022,183,1330,2022-07-02 13:30:00,220.3,7.835,8.09,8.34,18.11,67.19,1006,0,0
63845,2022,183,1340,2022-07-02 13:40:00,211.1,7.55,7.837,8.13,17.97,67.64,1006,0,0
63846,2022,183,1350,2022-07-02 13:50:00,214.9,7.457,7.757,8.06,18.05,67.97,1006,0,0
63847,2022,183,1400,2022-07-02 14:00:00,213.4,7.917,8.21,8.5,18,67.93,1006,0,0
63848,2022,183,1410,2022-07-02 14:10:00,222.6,8.31,8.55,8.8,18.02,66.77,1006,0,0
63849,2022,183,1420,2022-07-02 14:20:00,219.7,7.37,7.802,8.25,18.23,67.59,1006,0,0
63850,2022,183,1430,2022-07-02 14:30:00,205.3,7.91,8.3,8.67,18.27,67.75,1006,0,0
63851,2022,183,1440,2022-07-02 14:40:00,215.1,7.375,7.675,7.992,18.41,67.53,1006,0,0
63852,2022,183,1450,2022-07-02 14:50:00,200.8,8.38,8.66,9,18.23,68.99,1006,0,0
63853,2022,183,1500,2022-07-02 15:00:00,198.9,8.47,8.71,8.98,18.09,69.52,1006,0,0
63854,2022,183,1510,2022-07-02 15:10:00,196.9,9,9.4,9.75,18.19,70.13,1006,0,0
63855,2022,183,1520,2022-07-02 15:20:00,200.4,7.97,8.41,8.84,18.19,69.38,1006,0,0
63856,2022,183,1530,2022-07-02 15:30:00,197,10.55,10.84,11.14,18.22,72.34,1005,0,0
63857,2022,183,1540,2022-07-02 15:40:00,195.1,9.01,9.41,9.81,18.17,74.62,1006,0,0
63858,2022,183,1550,2022-07-02 15:50:00,194.3,9.08,9.48,9.84,18.41,72.73,1006,0,0
63859,2022,183,1600,2022-07-02 16:00:00,194.2,10.16,10.44,10.71,18.3,71.92,1005,0,0
63860,2022,183,1610,2022-07-02 16:10:00,194,8.54,8.94,9.32,18.43,74.34,1006,0,0
63861,2022,183,1620,2022-07-02 16:20:00,194.5,9.6,10.04,10.49,18.43,74.31,1005,0,0
63862,2022,183,1630,2022-07-02 16:30:00,199.3,9.65,9.93,10.2,18.52,73.17,1005,0,0
63863,2022,183,1640,2022-07-02 16:40:00,197.6,7.467,7.86,8.28,18.8,73.03,1006,0,0
63864,2022,183,1650,2022-07-02 16:50:00,198.2,9.18,9.49,9.83,18.78,72.56,1005,0,0
63865,2022,183,1700,2022-07-02 17:00:00,198.9,8.81,9.18,9.51,18.71,72.79,1005,0,0
63866,2022,183,1710,2022-07-02 17:10:00,193.4,9.22,9.49,9.78,18.6,75.26,1005,0,0
63867,2022,183,1720,2022-07-02 17:20:00,197.1,7.877,8.27,8.7,18.77,74.14,1005,0,0
63868,2022,183,1730,2022-07-02 17:30:00,194.9,8.72,9.11,9.51,18.88,73.81,1005,0,0
63869,2022,183,1740,2022-07-02 17:40:00,198.3,8.53,8.83,9.09,18.79,72.94,1005,0,0
63870,2022,183,1750,2022-07-02 17:50:00,197.8,7.245,7.707,8.12,18.89,73.41,1005,0,0
63871,2022,183,1800,2022-07-02 18:00:00,195.7,9.02,9.34,9.66,18.81,74.4,1005,0,0
63872,2022,183,1810,2022-07-02 18:10:00,196,8.91,9.2,9.51,18.82,73.29,1005,0,0
63873,2022,183,1820,2022-07-02 18:20:00,198.1,7.773,8.14,8.53,19.04,72.59,1005,0,0
63874,2022,183,1830,2022-07-02 18:30:00,198,8.28,8.55,8.84,19.06,70.36,1005,0,0
63875,2022,183,1840,2022-07-02 18:40:00,195.6,6.293,6.645,7.002,19.12,71.17,1005,0,0
63876,2022,183,1850,2022-07-02 18:50:00,199,7.635,7.957,8.27,19.21,69.75,1005,0,0
63877,2022,183,1900,2022-07-02 19:00:00,196.1,6.338,6.697,7.058,19.24,70.85,1005,0,0
63878,2022,183,1910,2022-07-02 19:10:00,199.5,6.065,6.395,6.732,19.27,69.45,1005,0,0
63879,2022,183,1920,2022-07-02 19:20:00,200.1,6.435,6.752,7.027,19.29,68.38,1005,0,0
63880,2022,183,1930,2022-07-02 19:30:00,200.5,6.53,6.863,7.165,19.23,67.77,1005,0,0
63881,2022,183,1940,2022-07-02 19:40:00,198.6,6.745,7.072,7.412,19.06,66.77,1005,0,0
63882,2022,183,1950,2022-07-02 19:50:00,196.8,6.8,7.132,7.438,19,66.69,1005,0,0
63883,2022,183,2000,2022-07-02 20:00:00,193.8,7.292,7.587,7.898,18.95,66.43,1005,0,0
63884,2022,183,2010,2022-07-02 20:10:00,191.4,8.43,8.74,9.03,18.91,65.48,1005,0,0
63885,2022,183,2020,2022-07-02 20:20:00,194.9,8.74,9.01,9.3,18.9,65.02,1005,0,0
63886,2022,183,2030,2022-07-02 20:30:00,195.4,8.27,8.58,8.91,18.84,67.18,1005,0,0
63887,2022,183,2040,2022-07-02 20:40:00,197.9,8.1,8.39,8.7,18.8,68,1005,0,0
63888,2022,183,2050,2022-07-02 20:50:00,201.5,8.14,8.43,8.74,18.81,69.49,1005,0,0
63889,2022,183,2100,2022-07-02 21:00:00,202.4,8.3,8.66,8.98,18.8,70.83,1005,0,0
63890,2022,183,2110,2022-07-02 21:10:00,207.1,7.938,8.24,8.52,18.8,71.46,1005,0,0
63891,2022,183,2120,2022-07-02 21:20:00,207.4,7.83,8.15,8.47,18.8,71.08,1005,0,0
63892,2022,183,2130,2022-07-02 21:30:00,210.8,8.05,8.38,8.73,18.84,67.05,1005,0,0
63893,2022,183,2140,2022-07-02 21:40:00,216.1,8.08,8.43,8.76,18.8,65.79,1005,0,0
63894,2022,183,2150,2022-07-02 21:50:00,214.8,8.36,8.75,9.12,18.73,66.7,1005,0,0
63895,2022,183,2200,2022-07-02 22:00:00,222,8.06,8.4,8.77,18.65,65.53,1005,0,0
63896,2022,183,2210,2022-07-02 22:10:00,224.5,9.07,9.39,9.7,18.58,63.51,1005,0,0
63897,2022,183,2220,2022-07-02 22:20:00,222.6,8.84,9.19,9.55,18.47,64.91,1005,0,0
63898,2022,183,2230,2022-07-02 22:30:00,234.6,8.66,8.93,9.21,18.46,66.49,1006,0,0
63899,2022,183,2240,2022-07-02 22:40:00,245.5,7.232,7.415,7.627,18.35,71.19,1006,0,0
63900,2022,183,2250,2022-07-02 22:50:00,244.2,6.635,6.805,6.96,18.21,72.23,1006,0,0
63901,2022,183,2300,2022-07-02 23:00:00,236.3,6.148,6.377,6.607,18.08,73.16,1006,0,0
63902,2022,183,2310,2022-07-02 23:10:00,240.4,5.707,5.853,5.995,18.02,73.79,1006,0,0
63903,2022,183,2320,2022-07-02 23:20:00,234.1,6.043,6.215,6.393,17.86,73.75,1006,0,0